軌道要素
Epoch 2020 May 31.0 TT = JDT 2459000.5
T 2020 June 19.26108 TT Rudenko
q 2.2769361 (2000.0) P Q
n 0.13174621 Peri. 14.39257 +0.92382321 -0.38186034
a 3.8251103 Node 8.21204 +0.32981300 +0.75799945
e 0.4047398 Incl. 10.92893 +0.19435552 +0.52879062
P 7.48
From 496 observations 2012 Sept. 14-2021 Jan. 21, mean residual 0".7.
|